| time (UTC) | temp F | wind direction | speed MPH | gust MPH | rain 1hr in | rain 24hr in | rain mn in | humidity % | barometer mb |
| 20260504060104 | 39 | 207 | 6.0 | 17.0 | 0.02 | 0.71 | 0.06 | 100 | 973.5 |
| 20260504044539 | 38 | 144 | 10.0 | 21.0 | 0.02 | 0.68 | 0.03 | 100 | 975.2 |
| 20260504043037 | 38 | 132 | 4.0 | 20.0 | 0.02 | 0.67 | 0.02 | 100 | 976.4 |
| 20260504041531 | 39 | 116 | 12.0 | 21.0 | 0.02 | 0.66 | 0.02 | 100 | 976.8 |
| 20260504040028 | 39 | 188 | 7.0 | 20.0 | 0.01 | 0.65 | 0.01 | 100 | 978.4 |
| 20260504034524 | 39 | 214 | 3.0 | 12.0 | 0.01 | 0.65 | 0.01 | 100 | 978.8 |
| 20260504033019 | 39 | 165 | 11.0 | 19.0 | 0.00 | 0.65 | 0.00 | 100 | 979.6 |
| 20260504031516 | 39 | 181 | 5.0 | 16.0 | 0.00 | 0.65 | 0.00 | 100 | 980.2 |
| 20260504030011 | 40 | 212 | 6.0 | 15.0 | 0.00 | 0.65 | 0.00 | 100 | 980.8 |
| 20260504024511 | 40 | 169 | 9.0 | 19.0 | 0.01 | 0.65 | 0.65 | 100 | 981.3 |
| 20260504023006 | 41 | 191 | 3.0 | 26.0 | 0.01 | 0.65 | 0.65 | 100 | 981.8 |
| 20260504021504 | 41 | 139 | 7.0 | 17.0 | 0.02 | 0.65 | 0.65 | 100 | 982.5 |
| 20260504020002 | 41 | 168 | 4.0 | 10.0 | 0.03 | 0.65 | 0.65 | 100 | 982.6 |
| 20260504014559 | 39 | 23 | 0.0 | 4.0 | 0.05 | 0.64 | 0.64 | 100 | 983.6 |
| 20260504013054 | 38 | 21 | 1.0 | 6.0 | 0.07 | 0.64 | 0.64 | 100 | 984.4 |
| 20260504011552 | 38 | 21 | 3.0 | 8.0 | 0.07 | 0.62 | 0.62 | 100 | 985.2 |
| 20260504010048 | 38 | 15 | 7.0 | 14.0 | 0.09 | 0.61 | 0.61 | 100 | 986.4 |
| 20260504004545 | 37 | 31 | 5.0 | 16.0 | 0.09 | 0.59 | 0.59 | 100 | 987.3 |
| 20260504003043 | 38 | 61 | 10.0 | 22.0 | 0.13 | 0.56 | 0.56 | 100 | 988.0 |
| 20260504001538 | 37 | 81 | 10.0 | 20.0 | 0.18 | 0.55 | 0.55 | 100 | 989.2 |
| 20260504000042 | 37 | 60 | 8.0 | 17.0 | 0.19 | 0.52 | 0.52 | 100 | 989.6 |
| 20260503234533 | 37 | 65 | 11.0 | 21.0 | 0.20 | 0.50 | 0.50 | 100 | 989.9 |
| 20260503233036 | 37 | 39 | 8.0 | 22.0 | 0.14 | 0.43 | 0.43 | 100 | 991.2 |
| 20260503231524 | 37 | 43 | 9.0 | 20.0 | 0.10 | 0.37 | 0.37 | 100 | 992.4 |
| 20260503230021 | 36 | 54 | 7.0 | 18.0 | 0.08 | 0.33 | 0.33 | 100 | 993.4 |
| 20260503224526 | 36 | 51 | 8.0 | 17.0 | 0.08 | 0.31 | 0.31 | 100 | 994.4 |
| 20260503223014 | 36 | 39 | 6.0 | 21.0 | 0.11 | 0.28 | 0.28 | 100 | 995.1 |
| 20260503221511 | 36 | 77 | 10.0 | 18.0 | 0.12 | 0.27 | 0.27 | 100 | 995.6 |
| 20260503220018 | 36 | 85 | 7.0 | 15.0 | 0.16 | 0.25 | 0.25 | 100 | 996.3 |
| 20260503214510 | 36 | 41 | 10.0 | 18.0 | 0.13 | 0.22 | 0.22 | 100 | 996.5 |
| 20260503213008 | 35 | 29 | 5.0 | 17.0 | 0.10 | 0.18 | 0.18 | 100 | 995.9 |
| 20260503211505 | 35 | 42 | 7.0 | 14.0 | 0.06 | 0.14 | 0.14 | 100 | 996.9 |
| 20260503210100 | 35 | 29 | 7.0 | 19.0 | 0.02 | 0.09 | 0.09 | 100 | 998.0 |
| 20260503204558 | 35 | 71 | 9.0 | 18.0 | 0.02 | 0.09 | 0.09 | 99 | 998.5 |
| 20260503203056 | 35 | 74 | 6.0 | 16.0 | 0.02 | 0.08 | 0.08 | 99 | 999.8 |
| 20260503201552 | 35 | 86 | 7.0 | 19.0 | 0.02 | 0.08 | 0.08 | 99 | 1000.4 |
| 20260503200049 | 35 | 85 | 6.0 | 15.0 | 0.04 | 0.07 | 0.07 | 98 | 1001.0 |
| 20260503194550 | 35 | 68 | 6.0 | 15.0 | 0.06 | 0.07 | 0.07 | 98 | 1001.6 |
| 20260503193044 | 35 | 48 | 7.0 | 15.0 | 0.06 | 0.06 | 0.06 | 97 | 1002.4 |
| 20260503191540 | 36 | 82 | 5.0 | 13.0 | 0.06 | 0.06 | 0.06 | 97 | 1003.1 |
| 20260503190042 | 37 | 360 | 5.0 | 11.0 | 0.03 | 0.03 | 0.03 | 96 | 1003.6 |
| 20260503184553 | 37 | 55 | 4.0 | 10.0 | 0.01 | 0.01 | 0.01 | 95 | 1005.2 |
| 20260503183035 | 38 | 58 | 5.0 | 13.0 | 0.00 | 0.00 | 0.00 | 93 | 1005.5 |
| 20260503181533 | 38 | 22 | 5.0 | 11.0 | 0.00 | 0.00 | 0.00 | 92 | 1005.9 |
| 20260503180034 | 39 | 69 | 3.0 | 9.0 | 0.00 | 0.00 | 0.00 | 92 | 1007.0 |
| 20260503174531 | 39 | 45 | 2.0 | 10.0 | 0.00 | 0.00 | 0.00 | 91 | 1007.2 |
| 20260503173032 | 40 | 71 | 6.0 | 10.0 | 0.00 | 0.00 | 0.00 | 89 | 1008.0 |
| 20260503171521 | 40 | 83 | 6.0 | 11.0 | 0.00 | 0.00 | 0.00 | 89 | 1008.4 |
| 20260503130151 | 47 | 85 | 2.0 | 8.0 | 0.00 | 0.00 | 0.00 | 79 | 1012.3 |
| 20260503081602 | 35 | 203 | 1.0 | 4.0 | 0.00 | 0.02 | 0.00 | 100 | 1015.5 |
| 20260503080108 | 35 | 203 | 3.0 | 6.0 | 0.00 | 0.02 | 0.00 | 100 | 1015.5 |
| 20260503071607 | 34 | 203 | 3.0 | 7.0 | 0.00 | 0.04 | 0.00 | 100 | 1015.7 |